Location: Mount Wilson Observatory
(34.2257°N, 118.0571°W)
Time: 19:00:02
(UTC-07:00)

ATLAS 3B CENTAUR R/B - Visible Passes

Search period start: 24 September 2016 00:00
Search period end: 04 October 2016 00:00
Orbit: 223 x 6492 km, 28.1° (Epoch: 24 September)

Date Brightness Start Highest point End Pass type
(mag) Time Alt. Az. Time Alt. Az. Time Alt. Az.
26 Sep 6.7 06:15:50 10° SSW 06:42:08 38° SE 07:19:08 10° E visible
27 Sep 6.6 06:08:03 10° SSW 06:33:22 39° SE 07:10:42 10° E visible
28 Sep 6.5 06:00:06 10° SSW 06:24:24 39° SE 07:01:57 10° E visible
29 Sep 6.4 05:51:59 10° SSW 06:15:14 39° SE 06:52:53 10° E visible
30 Sep 6.4 05:43:42 10° SSW 06:05:54 39° SE 06:43:30 10° E visible
01 Oct 6.3 05:35:15 10° SSW 05:56:24 39° SE 06:33:48 10° E visible
02 Oct 6.2 05:26:38 10° SSW 05:46:44 39° SE 06:23:47 10° E visible
03 Oct 6.1 05:17:51 10° SSW 05:36:54 39° SE 06:13:27 10° E visible
